00001 3.34 0.12 K074A 215.80100 73.15069 80.40696 10.58671 0.0797602 0.21425752 2.7659565 0 MPO110568 6063 94 1802-2006 0.61 M-v 30h MPC 0000 (1) Ceres 00002 4.13 0.11 K074A 199.72616 310.34481 173.13579 34.84182 0.2307589 0.21359553 2.7716684 MPC 24084 5482 63 1839-1993 0.55 M-c 28 Bowell 0000 (2) Pallas 00003 5.33 0.32 K074A 121.22421 247.84192 170.12007 12.97036 0.2580231 0.22617969 2.6678842 MPC 24084 4741 65 1839-1993 0.56 M-c 08 Bowell 0000 (3) Juno 00004 3.20 0.32 K074A 341.59209 150.18003 103.91841 7.13380 0.0893657 0.27151653 2.3619563 MPC 24219 5168 56 1841-1993 0.56 M-c 18 Bowell 0000 (4) Vesta 00008 6.49 0.28 K074A 306.89266 285.47620 110.96318 5.88900 0.1562843 0.30181959 2.2010898 0 MPO 25662 2438 102 1847-2000 0.54 M-v 38h Goffin 0000 (8) Flora 00009 6.28 0.17 K074A 180.97060 5.94454 68.97304 5.57622 0.1213533 0.26711633 2.3878246 0 MPO 25662 2131 96 1822-2001 0.54 M-v 38h Goffin 0000 (9) Metis 00010 5.43 0.15 K074A 91.71482 313.03458 283.45639 3.84230 0.1179048 0.17741509 3.1367195 0 MPC 35055 2261 104 1849-1999 0.53 M-v 38h Goffin 0000 (10) Hygiea 00011 6.55 0.15 K074A 230.35564 195.25897 125.62831 4.62477 0.1001911 0.25667958 2.4521207 MPC 24085 2613 61 1850-1993 0.57 M-c 08 Bowell 0000 (11) Parthenope 00012 7.24 0.22 K074A 357.16326 69.57992 235.53729 8.36380 0.2203022 0.27638893 2.3341152 0 MPO 57621 2635 86 1850-2003 0.56 M-v 38h Goffin 0000 (12) Victoria 00013 6.74 0.15 K074A 218.46780 81.05709 43.28861 16.54445 0.0859186 0.23846684 2.5754358 0 MPO 2601 946 54 1850-2000 0.77 M-v 38h Williams 0000 (13) Egeria 00014 6.30 0.15 K074A 203.77699 96.33736 86.45856 9.10734 0.1679553 0.23709605 2.5853529 0 MPO 595 1765 84 1851-2000 0.54 M-v 38h Goffin 0000 (14) Irene 00016 5.90 0.20 K074A 141.36755 227.80483 150.34442 3.09587 0.1395352 0.19759383 2.9193565 0 MPC 35055 1831 96 1852-1998 0.53 M-v 38h Goffin 0000 (16) Psyche 00017 7.76 0.15 K074A 266.75171 136.04882 125.60824 5.58755 0.1345052 0.25393581 2.4697524 0 MPC 38747 869 73 1853-1999 0.88 M-v 38h Williams 0000 (17) Thetis 00018 6.51 0.25 K074A 100.33557 227.97308 150.53160 10.12591 0.2187261 0.28343224 2.2952846 0 MPO 53552 4910 95 1852-2003 0.55 M-v 38h Goffin 0000 (18) Melpomene 00019 7.13 0.10 K074A 141.06664 181.93133 211.36930 1.57348 0.1592703 0.25838339 2.4413291 0 MPO 53552 2354 94 1852-2003 0.57 M-v 38h Goffin 0000 (19) Fortuna 00020 6.50 0.25 K074A 38.98396 255.49215 206.50723 0.70693 0.1427681 0.26362851 2.4088391 0 MPO 25662 1670 96 1852-2001 0.54 M-v 38h Goffin 0000 (20) Massalia 00021 7.35 0.11 K074A 283.17219 249.97293 80.91297 3.06447 0.1634525 0.25922363 2.4360507 0 MPO 2601 814 58 1866-2000 0.67 M-v 38h Williams 0000 (21) Lutetia 00023 6.95 0.15 K074A 38.11040 59.32424 67.22721 10.14522 0.2328826 0.23145754 2.6271719 0 MPO 4876 888 67 1852-2000 0.53 M-v 38h Goffin 0000 (23) Thalia 00027 7.0 0.15 K074A 208.56002 356.82281 94.80526 1.58377 0.1724629 0.27418322 2.3466166 0 MPO 4876 1618 79 1853-2000 0.53 M-v 38h Goffin 0000 (27) Euterpe 00028 7.09 0.15 K074A 57.80794 342.60799 144.50065 9.40105 0.1482296 0.21283595 2.7782589 0 MPO 50329 1939 113 1854-2003 0.57 M-v 38h Goffin 0000 (28) Bellona 00029 5.85 0.20 K074A 302.13543 63.41219 356.49901 6.09630 0.0726562 0.24144577 2.5542083 0 MPO 57621 2260 101 1825-2003 0.56 M-v 38h Goffin 0000 (29) Amphitrite 00030 7.57 0.15 K074A 277.41514 86.95905 307.74746 2.09862 0.1265024 0.27090980 2.3654816 0 MPO 62176 1395 82 1854-2003 0.55 M-v 38h Goffin 0000 (30) Urania 00031 6.74 0.15 K074A 32.14302 61.99008 31.23633 26.31610 0.2257792 0.17635610 3.1492639 0 MPO 53552 1277 68 1854-2002 0.56 M-v 38h Goffin 0000 (31) Euphrosyne 00032 7.56 0.15 K074A 69.93534 339.49932 220.56964 5.52984 0.0831283 0.23682846 2.5873000 1 MPC 27086 524 81 1854-1993 1.05 M-v 38d Goffin 0000 (32) Pomona 00037 7.29 0.24 K074A 52.29330 62.66836 7.40792 3.07331 0.1765750 0.22963429 2.6410597 0 MPC 31001 1399 97 1855-1996 0.55 M-v 38h Goffin 0000 (37) Fides 00040 7.0 0.15 K074A 277.74465 269.20937 94.28554 4.25652 0.0462906 0.28864362 2.2675737 0 MPC 31001 3339 81 1856-1996 0.52 M-v 38h Goffin 0000 (40) Harmonia 00043 7.93 0.11 K074A 252.23497 15.97082 264.93496 3.46799 0.1680604 0.30142093 2.2030302 0 MPO 77281 1358 89 1857-2004 0.54 M-v 38h Goffin 0000 (43) Ariadne 00051 7.35 0.08 K074A 343.72579 2.85685 176.16721 9.97185 0.0664134 0.27092792 2.3653761 0 MPC 31001 3595 87 1858-1997 0.52 M-v 38h Goffin 0000 (51) Nemausa 00052 6.31 0.18 K074A 160.58189 343.95871 128.76379 7.47534 0.1043077 0.18065907 3.0990567 MPC 24371 1231 82 1858-1994 0.80 M-c 08 Goffin 0000 (52) Europa 00063 7.55 0.25 K074A 49.98882 295.63634 337.91055 5.78596 0.1258912 0.26589155 2.3951517 0 MPC 35405 940 76 1861-1998 0.53 M-v 38h Goffin 0000 (63) Ausonia 00071 7.30 0.40 K074A 35.46575 267.41459 316.08223 23.25861 0.1765324 0.21553531 2.7550137 0 MPO 2601 292 41 1864-2000 0.86 M-v 38h Williams 0000 (71) Niobe 00078 8.09 0.08 K074A 17.05133 151.42433 333.58166 8.68811 0.2072468 0.23244185 2.6197499 0 MPO 77281 651 57 1863-2005 0.80 M-v 38h MPC 0000 (78) Diana 00080 7.98 0.15 K074A 291.17556 139.14807 218.81447 8.66269 0.1999535 0.28321973 2.2964327 0 MPO 57621 1282 67 1864-2003 0.56 M-v 38h Goffin 0000 (80) Sappho 00085 7.61 0.15 K074A 298.35426 122.07211 203.43216 11.96077 0.1922251 0.22786463 2.6547162 0 MPO 31791 946 71 1865-2002 0.57 M-v 38h Goffin 0000 (85) Io 00089 6.60 0.15 K074A 153.38420 44.97470 311.64832 16.14209 0.1838684 0.24208208 2.5497306 0 MPC 30777 722 59 1866-1995 0.54 M-v 38h Goffin 0000 (89) Julia 00102 9.26 0.15 K074A 332.03112 147.38276 210.92944 5.17648 0.2513656 0.22690716 2.6621790 0 MPC 34570 318 51 1868-1999 0.56 M-v 38h Goffin 0000 (102) Miriam 00115 7.51 0.12 K074A 275.54191 96.88141 308.97791 11.60185 0.1917066 0.26849470 2.3796453 0 MPO 2601 616 46 1872-1999 0.62 M-v 38h Williams 0000 (115) Thyra 00116 7.82 0.15 K074A 1.65651 93.13306 64.03538 3.56900 0.1374327 0.21389503 2.7690806 0 MPO 595 460 61 1871-1999 0.56 M-v 38h Goffin 0000 (116) Sirona 00144 7.91 0.17 K074A 85.76076 293.63252 76.48645 4.80840 0.2356057 0.22792902 2.6542162 MPC 22665 238 54 1875-1990 0.99 M-c 08 Goffin 0000 (144) Vibilia 00185 7.62 0.15 K074A 307.80784 224.22223 153.93786 23.22331 0.1271839 0.21745639 2.7387639 0 MPC 27543 824 65 1878-1995 0.74 M-v 38d Goffin 0000 (185) Eunike 00192 7.13 0.03 K074A 274.66688 29.97100 343.33357 6.81438 0.2457705 0.26442395 2.4040059 0 MPC 31001 864 67 1847-1996 0.53 M-v 38h Goffin 0000 (192) Nausikaa 00194 7.68 0.15 K074A 331.13915 162.85575 159.48810 18.48447 0.2358689 0.23270966 2.6177396 0 MPC 26546 425 60 1879-1994 0.99 M-v 38d Goffin 0000 (194) Prokne 00196 6.54 0.15 K074A 22.52878 199.65372 72.55539 7.26127 0.0219947 0.17947437 3.1126796 0 MPO 2601 742 58 1879-2000 0.65 M-v 38h Williams 0000 (196) Philomela 00198 8.33 0.15 K074A 341.68701 88.61907 268.52884 9.31008 0.2277902 0.25566312 2.4586158 1 MPC 30889 93 31 1908-1995 1.08 M-v 38d Sumzina 0000 (198) Ampella 00230 7.35 0.27 K074A 284.06539 139.82830 239.96046 9.43857 0.0608797 0.26806095 2.3822117 0 MPC 31001 797 64 1882-1996 0.53 M-v 38h Goffin 0000 (230) Athamantis 00270 8.75 0.15 K074A 271.33680 80.23394 254.55581 2.36568 0.1506100 0.30231085 2.1987046 0 MPO 35428 719 63 1887-2002 0.55 M-v 38h Goffin 0000 (270) Anahita 00349 5.93 0.37 K074A 355.49375 347.48492 32.50121 8.25659 0.0879303 0.19703811 2.9248431 0 MPC 31001 1414 72 1892-1996 0.53 M-v 38h Goffin 0000 (349) Dembowska 00354 6.44 0.37 K074A 126.32742 6.99306 140.41562 18.38698 0.1137220 0.21045259 2.7991953 0 MPC 31001 1700 75 1893-1997 0.55 M-v 38h Goffin 0000 (354) Eleonora 00372 7.2 0.15 K074A 35.01941 116.01796 327.45778 23.86231 0.2625332 0.17675656 3.1445055 0 MPC 34570 358 50 1893-1996 0.56 M-v 38h Goffin 0000 (372) Palma 00471 6.73 0.37 K074A 83.15526 314.44269 84.09526 14.98536 0.2335226 0.20106256 2.8856828 0 MPC 31001 899 60 1901-1997 0.52 M-v 38h Goffin 0000 (471) Papagena 00511 6.22 0.16 K074A 282.75982 338.47850 107.66961 15.93781 0.1856709 0.17493160 3.1663375 0 MPC 31002 1127 73 1903-1997 0.54 M-v 38h Goffin 0000 (511) Davida 00516 8.27 0.15 K074A 341.86660 258.54817 328.88640 12.95674 0.2735987 0.22467836 2.6797558 0 MPC 34570 258 45 1903-1998 0.55 M-v 38h Goffin 0000 (516) Amherstia 00532 5.81 0.26 K074A 124.19012 76.72070 107.60220 16.31437 0.1785831 0.21377373 2.7701279 0 MPC 31002 2223 69 1904-1997 0.53 M-v 38h Goffin 0000 (532) Herculina 00584 8.71 0.24 K074A 330.20543 84.85836 282.29938 10.72769 0.2329048 0.26952305 2.3735885 0 MPO 33740 360 48 1906-2002 0.55 M-v 38h Goffin 0000 (584) Semiramis 00704 5.94 -0.02 K074A 9.62591 95.77734 280.39110 17.29133 0.1499406 0.18394333 3.0620576 0 MPC 31002 2007 62 1910-1997 0.53 M-v 38h Goffin 0000 (704) Interamnia 00980 7.85 0.06 K074A 299.64293 69.84455 285.89628 15.89677 0.1998001 0.21697946 2.7427757 0 MPO 62176 377 38 1921-2004 0.54 M-v 38h Goffin 0000 (980) Anacostia 01166 8.8 0.15 K074A 331.04892 189.17322 106.79002 18.89165 0.2072915 0.24390189 2.5370320 1 MPC 35406 29 15 1938-1999 0.70 M-v 38h Bowell 0000 (1166) Sakuntala